When you browse on this site, cookies collect data to enhance your experience and personalize the content and advertising you see.
Visit our Privacy Policy to learn more. By continuing to use the site, you agree to this use of cookies and data.

Hourly Weather Hlushkiv

Today, 8 August, Saturday

Time Temperature Precipitation Wind Pressure Humidity
00:00 +20°C° 0 mm 2 mps 740 mmHg 95%
01:00 +20°C° 0 mm 2 mps 740 mmHg 97%
02:00 +20°C° 0 mm 2 mps 740 mmHg 99%
03:00 +19°C° 0 mm 2 mps 740 mmHg 100%
04:00 +20°C° 0 mm 1 mps 739 mmHg 100%
05:00 +20°C° 0 mm 1 mps 740 mmHg 100%
06:00 +20°C° 0 mm 1 mps 739 mmHg 100%
07:00 +20°C° 0 mm 1 mps 740 mmHg 100%
08:00 +21°C° 0 mm 1 mps 740 mmHg 100%
09:00 +22°C° 0 mm 1 mps 740 mmHg 97%
10:00 +21°C° 0 mm 0 mps 740 mmHg 97%
11:00 +24°C° 0 mm 1 mps 740 mmHg 96%
12:00 +24°C° 0 mm 1 mps 740 mmHg 95%
13:00 +26°C° 0.3 mm 1 mps 739 mmHg 92%
14:00 +26°C° 1.3 mm 4 mps 739 mmHg 84%
15:00 +26°C° 0 mm 4 mps 739 mmHg 81%
16:00 +26°C° 0 mm 4 mps 739 mmHg 81%
17:00 +26°C° 0 mm 4 mps 739 mmHg 82%
18:00 +25°C° 0 mm 3 mps 738 mmHg 88%
19:00 +24°C° 0 mm 2 mps 738 mmHg 91%
20:00 +23°C° 0 mm 1 mps 738 mmHg 95%
21:00 +23°C° 0 mm 2 mps 738 mmHg 97%
22:00 +22°C° 0 mm 1 mps 739 mmHg 98%
23:00 +21°C° 0 mm 1 mps 739 mmHg 99%

Tomorrow, 9 August, Sunday

Time Temperature Precipitation Wind Pressure Humidity
00:00 +20°C° 0 mm 2 mps 739 mmHg 100%
01:00 +20°C° 0 mm 2 mps 738 mmHg 99%
02:00 +20°C° 0 mm 1 mps 738 mmHg 100%
03:00 +20°C° 0 mm 1 mps 738 mmHg 99%
04:00 +18°C° 0 mm 2 mps 738 mmHg 99%
05:00 +19°C° 0 mm 1 mps 738 mmHg 100%
06:00 +19°C° 0 mm 1 mps 738 mmHg 100%
07:00 +20°C° 0 mm 1 mps 738 mmHg 99%
08:00 +21°C° 0 mm 1 mps 738 mmHg 97%
09:00 +20°C° 0 mm 0 mps 738 mmHg 95%
10:00 +21°C° 0 mm 0 mps 739 mmHg 93%
11:00 +23°C° 0 mm 1 mps 739 mmHg 88%
12:00 +24°C° 0 mm 1 mps 739 mmHg 83%
13:00 +25°C° 0 mm 1 mps 738 mmHg 82%
14:00 +25°C° 0 mm 1 mps 737 mmHg 82%
15:00 +25°C° 0 mm 1 mps 737 mmHg 81%
16:00 +25°C° 0 mm 2 mps 737 mmHg 82%
17:00 +25°C° 0 mm 2 mps 736 mmHg 84%
18:00 +24°C° 0.3 mm 1 mps 736 mmHg 86%
19:00 +24°C° 0.1 mm 2 mps 736 mmHg 91%
20:00 +23°C° 0 mm 1 mps 736 mmHg 96%
21:00 +22°C° 0 mm 1 mps 736 mmHg 97%
22:00 +21°C° 0 mm 1 mps 737 mmHg 98%
23:00 +21°C° 0 mm 1 mps 737 mmHg 99%

Day after tomorrow, 10 August, Monday

Time Temperature Precipitation Wind Pressure Humidity
00:00 +21°C° 0 mm 1 mps 737 mmHg 99%
01:00 +20°C° 0 mm 1 mps 736 mmHg 100%
02:00 +20°C° 0 mm 1 mps 736 mmHg 100%
03:00 +19°C° 0 mm 1 mps 736 mmHg 100%
04:00 +19°C° 0 mm 1 mps 736 mmHg 100%
05:00 +19°C° 0 mm 1 mps 736 mmHg 100%
06:00 +19°C° 0 mm 1 mps 736 mmHg 100%
07:00 +19°C° 0 mm 1 mps 736 mmHg 100%
08:00 +20°C° 0 mm 1 mps 736 mmHg 98%
09:00 +21°C° 0 mm 1 mps 736 mmHg 95%
10:00 +21°C° 0 mm 2 mps 737 mmHg 94%
11:00 +21°C° 0 mm 2 mps 737 mmHg 95%
12:00 +23°C° 0 mm 2 mps 737 mmHg 93%
13:00 +23°C° 0 mm 2 mps 737 mmHg 91%
14:00 +24°C° 0 mm 3 mps 736 mmHg 88%
15:00 +24°C° 0 mm 3 mps 736 mmHg 86%
16:00 +24°C° 0 mm 3 mps 736 mmHg 85%
17:00 +24°C° 0 mm 2 mps 736 mmHg 86%
18:00 +24°C° 0 mm 2 mps 736 mmHg 88%
19:00 +23°C° 0 mm 2 mps 736 mmHg 92%
20:00 +22°C° 0 mm 1 mps 736 mmHg 95%
21:00 +22°C° 0 mm 1 mps 736 mmHg 95%
22:00 +21°C° 0 mm 1 mps 736 mmHg 98%
23:00 +20°C° 0 mm 1 mps 736 mmHg 99%

11 August, Tuesday

Time Temperature Precipitation Wind Pressure Humidity
00:00 +20°C° 0 mm 1 mps 737 mmHg 99%
01:00 +19°C° 0 mm 1 mps 736 mmHg 100%
02:00 +18°C° 0 mm 1 mps 736 mmHg 100%
03:00 +18°C° 0 mm 1 mps 736 mmHg 100%
04:00 +18°C° 0 mm 1 mps 736 mmHg 100%
05:00 +18°C° 0 mm 1 mps 736 mmHg 100%
06:00 +18°C° 0 mm 1 mps 736 mmHg 100%
07:00 +18°C° 0 mm 1 mps 737 mmHg 100%
08:00 +18°C° 0 mm 1 mps 737 mmHg 100%
09:00 +18°C° 0 mm 2 mps 737 mmHg 100%
10:00 +19°C° 0 mm 2 mps 737 mmHg 97%
11:00 +19°C° 0 mm 3 mps 737 mmHg 97%
12:00 +20°C° 0 mm 3 mps 737 mmHg 97%
13:00 +21°C° 0 mm 2 mps 737 mmHg 96%
14:00 +21°C° 0 mm 2 mps 737 mmHg 92%
15:00 +23°C° 0 mm 2 mps 737 mmHg 91%
16:00 +23°C° 0 mm 2 mps 736 mmHg 89%
17:00 +23°C° 0 mm 2 mps 737 mmHg 84%
18:00 +23°C° 0 mm 1 mps 736 mmHg 86%
19:00 +23°C° 0 mm 1 mps 736 mmHg 92%
20:00 +22°C° 0 mm 1 mps 736 mmHg 95%
21:00 +21°C° 0 mm 1 mps 736 mmHg 97%
22:00 +21°C° 0 mm 1 mps 737 mmHg 98%
23:00 +20°C° 0 mm 1 mps 737 mmHg 99%

12 August, Wednesday

Time Temperature Precipitation Wind Pressure Humidity
00:00 +19°C° 0 mm 1 mps 737 mmHg 100%
01:00 +19°C° 0 mm 1 mps 736 mmHg 100%
02:00 +18°C° 0 mm 1 mps 736 mmHg 100%
03:00 +18°C° 0 mm 1 mps 736 mmHg 100%
04:00 +18°C° 0 mm 1 mps 736 mmHg 100%
05:00 +17°C° 0 mm 2 mps 736 mmHg 100%
06:00 +17°C° 0 mm 2 mps 736 mmHg 100%
07:00 +17°C° 0 mm 2 mps 737 mmHg 99%
08:00 +17°C° 0 mm 3 mps 737 mmHg 98%
09:00 +17°C° 0 mm 3 mps 737 mmHg 97%
10:00 +17°C° 0 mm 3 mps 737 mmHg 97%
11:00 +18°C° 0 mm 3 mps 737 mmHg 97%
12:00 +18°C° 0 mm 3 mps 738 mmHg 96%
13:00 +19°C° 0 mm 2 mps 737 mmHg 94%
14:00 +20°C° 0 mm 3 mps 737 mmHg 93%
15:00 +20°C° 0 mm 3 mps 737 mmHg 91%
16:00 +20°C° 0 mm 3 mps 737 mmHg 87%
17:00 +20°C° 0 mm 3 mps 737 mmHg 87%
18:00 +20°C° 0 mm 3 mps 737 mmHg 85%
19:00 +20°C° 0 mm 1 mps 737 mmHg 91%
20:00 +19°C° 0 mm 1 mps 737 mmHg 95%
21:00 +18°C° 0 mm 2 mps 738 mmHg 95%
22:00 +17°C° 0 mm 2 mps 738 mmHg 97%
23:00 +17°C° 0 mm 2 mps 738 mmHg 98%

13 August, Thursday

Time Temperature Precipitation Wind Pressure Humidity
00:00 +16°C° 0 mm 2 mps 738 mmHg 99%
01:00 +16°C° 0 mm 2 mps 737 mmHg 99%
02:00 +15°C° 0 mm 2 mps 738 mmHg 100%
03:00 +15°C° 0 mm 2 mps 737 mmHg 100%
04:00 +14°C° 0 mm 1 mps 737 mmHg 100%
05:00 +14°C° 0 mm 1 mps 737 mmHg 100%
06:00 +14°C° 0 mm 1 mps 737 mmHg 100%
07:00 +14°C° 0 mm 1 mps 738 mmHg 100%
08:00 +14°C° 0 mm 1 mps 738 mmHg 100%
09:00 +15°C° 0 mm 1 mps 738 mmHg 100%
10:00 +16°C° 0 mm 1 mps 739 mmHg 96%
11:00 +19°C° 0 mm 1 mps 739 mmHg 90%
12:00 +20°C° 0 mm 1 mps 739 mmHg 83%
13:00 +19°C° 0 mm 2 mps 739 mmHg 79%
14:00 +19°C° 0 mm 3 mps 739 mmHg 79%
15:00 +20°C° 0 mm 2 mps 739 mmHg 79%
16:00 +20°C° 0 mm 2 mps 738 mmHg 76%
17:00 +20°C° 0 mm 2 mps 738 mmHg 76%
18:00 +19°C° 0 mm 2 mps 738 mmHg 82%
19:00 +20°C° 0 mm 1 mps 738 mmHg 91%
20:00 +19°C° 0 mm 1 mps 738 mmHg 90%
21:00 +19°C° 0 mm 1 mps 738 mmHg 89%
22:00 +18°C° 0 mm 1 mps 738 mmHg 91%
23:00 +16°C° 0 mm 1 mps 739 mmHg 96%
Show more